ISS (ZARYA) 1 25544U 98067A 26105.55408209 .00005244 00000+0 10354-3 0 9997 2 25544 51.6327 250.0746 0006583 315.7730 44.2732 15.48924547562046 POISK 1 36086U 09060A 26105.55408209 .00005244 00000+0 10354-3 0 9995 2 36086 51.6327 250.0746 0006583 315.7730 44.2732 15.48924547561497 CSS (TIANHE) 1 48274U 21035A 26105.10565112 .00018051 00000+0 20098-3 0 9997 2 48274 41.4685 346.2837 0005649 210.9621 149.0886 15.62404897283301 ISS (NAUKA) 1 49044U 21066A 26105.55408209 .00005244 00000+0 10354-3 0 9993 2 49044 51.6327 250.0746 0006583 315.7730 44.2732 15.48924547561530 FREGAT DEB 1 49271U 11037PF 26104.93499389 .00000121 00000+0 33299-3 0 9994 2 49271 51.6410 191.9016 0947897 142.5117 224.5850 12.40990194217199 CSS (WENTIAN) 1 53239U 22085A 26105.10565112 .00018051 00000+0 20098-3 0 9990 2 53239 41.4685 346.2837 0005649 210.9621 149.0886 15.62404897283139 CSS (MENGTIAN) 1 54216U 22143A 26105.10565112 .00018051 00000+0 20098-3 0 9991 2 54216 41.4685 346.2837 0005649 210.9621 149.0886 15.62404897283674 TIANZHOU-9 1 64786U 25149A 26105.10565112 .00018051 00000+0 20098-3 0 9993 2 64786 41.4685 346.2837 0005649 210.9621 149.0886 15.62404897283677 PROGRESS-MS 32 1 65586U 25204A 26105.55408209 .00005244 00000+0 10354-3 0 9990 2 65586 51.6327 250.0746 0006583 315.7730 44.2732 15.48924547554508 YOTSUBA-KULOVER 1 65941U 98067XN 26105.56401473 .02939010 12017-4 95149-3 0 9999 2 65941 51.6069 222.1206 0012691 321.5331 38.4783 16.25128222 29382 BOTAN 1 65943U 98067XQ 26105.35718453 .01183344 99047-3 84381-3 0 9990 2 65943 51.6119 223.7897 0012476 323.3599 36.6563 16.15393311 29344 HRC MONOBLOCK CAMERA 1 66052U 98067XR 26105.56199061 .00037478 00000+0 35813-3 0 9991 2 66052 51.6261 238.8652 0004062 284.6606 75.3939 15.66337634 28167 HTV-X1 1 66174U 25241A 26104.77668914 .00004085 00000+0 13918-3 0 9990 2 66174 51.6355 259.0566 0007486 312.6087 47.4262 15.32643759 26475 SZ-21 MODULE 1 66515U 25246C 26105.33049890 .00022253 00000+0 17104-3 0 9991 2 66515 41.4749 337.3074 0004486 273.6792 86.3537 15.71481945 23832 SHENZHOU-22 1 66645U 25272A 26105.10565112 .00018051 00000+0 20098-3 0 9996 2 66645 41.4685 346.2837 0005649 210.9621 149.0886 15.62404897283673 SOYUZ-MS 28 1 66664U 25275A 26105.55408209 .00005244 00000+0 10354-3 0 9996 2 66664 51.6327 250.0746 0006583 315.7730 44.2732 15.48924547561773 DUPLEX 1 66906U 98067XS 26105.60929503 .00019777 00000+0 25869-3 0 9998 2 66906 51.6280 244.4430 0003913 295.5868 64.4720 15.58615839 20883 ISS OBJECT XT 1 66907U 98067XT 26105.59333676 .00258484 00000+0 97055-3 0 9993 2 66907 51.6200 235.2559 0010423 315.1475 44.8686 15.86513416 21000 ISS OBJECT XU 1 66908U 98067XU 26105.64820632 .00276419 00000+0 10090-2 0 9994 2 66908 51.6202 234.8663 0010300 313.7349 46.2802 15.87046438 21015 SILVERSAT 1 66909U 98067XV 26105.06953545 .00663705 20908-3 12552-2 0 9997 2 66909 51.6140 235.4536 0013604 318.9730 41.0255 15.99998535 20958 ISS OBJECT XW 1 66910U 98067XW 26105.56315090 .00196029 00000+0 86981-3 0 9996 2 66910 51.6189 235.7989 0009772 309.1738 50.8396 15.83208769 20993 ISS OBJECT XY 1 66912U 98067XY 26104.66437717 .00080395 00000+0 60664-3 0 9997 2 66912 51.6239 244.1064 0006401 300.4632 59.5733 15.71741483 20793 KNACKSAT-2 1 67683U 98067XZ 26105.65405102 .00025735 00000+0 38264-3 0 9994 2 67683 51.6306 247.7444 0011463 325.1348 34.8890 15.54916525 10530 CORAL 1 67684U 98067YA 26105.65520931 .00060710 00000+0 70726-3 0 9994 2 67684 51.6288 246.2489 0015090 317.4992 42.4832 15.60950170 10556 GXIBA-1 1 67685U 98067YB 26105.63662027 .00028254 00000+0 40774-3 0 9993 2 67685 51.6294 247.6274 0013406 322.0719 37.9327 15.55649076 10539 UITMSAT-2 1 67686U 98067YC 26105.60841335 .00036185 00000+0 49450-3 0 9994 2 67686 51.6291 247.4402 0010325 300.5759 59.4214 15.57034284 10535 HMU-SAT2 1 67687U 98067YD 26105.13077316 .00023493 00000+0 34533-3 0 9997 2 67687 51.6307 250.2540 0009709 300.3665 59.6366 15.55306273 10377 LEOPARD 1 67688U 98067YE 26105.55706741 .00031712 00000+0 44486-3 0 9996 2 67688 51.6293 247.8491 0009993 300.9293 59.0716 15.56399565 10445 CREW DRAGON 12 1 67796U 26031A 26105.55408209 .00005244 00000+0 10354-3 0 9994 2 67796 51.6327 250.0746 0006583 315.7730 44.2732 15.48924547562085 PROGRESS-MS 33 1 68319U 26058A 26105.55408209 .00005244 00000+0 10354-3 0 9995 2 68319 51.6327 250.0746 0006583 315.7730 44.2732 15.48924547 3166 CYGNUS NG-24 1 68689U 26079A 26105.55408209 .00005244 00000+0 10354-3 0 9998 2 68689 51.6327 250.0746 0006583 315.7730 44.2732 15.48924547 567